Theta_e
344 345 344 344 342 341 340 337 331 331 329 328 326 324 324 323 329 333 333 332 330 332 331 331 332 333 335 333 329 329 319 318
342 347 351 346 344 342 341 338 332 331 329 325 323 321 325 326 328 332 333 332 330 328 332 330 331 334 335 335 334 329 327 317
340 347 349 350 344 343 341 338 332 331 329 324 322 321 324 327 328 331 333 332 331 329 328 332 330 332 335 336 335 332 328 320
340 342 348 348 344 343 342 338 333 332 329 325 321 321 323 324 327 331 332 331 331 330 328 329 329 330 335 335 333 332 326 321
342 342 343 345 345 344 342 338 334 333 329 325 321 321 324 324 326 330 331 331 328 327 326 325 328 328 330 333 332 333 326 321
344 344 344 345 344 344 342 338 335 333 329 324 325 322 329 329 327 326 328 328 327 326 323 321 324 325 325 328 329 333 326 321
344 344 345 345 345 342 342 338 336 333 329 324 330 329 334 330 330 327 324 324 325 324 321 320 325 326 328 327 334 335 329 321
343 344 343 345 346 343 342 339 336 334 329 324 332 332 334 331 333 330 322 322 322 323 320 323 326 329 332 332 333 336 328 323
342 343 343 342 345 343 342 340 337 335 331 326 331 334 331 334 335 330 322 323 323 325 324 325 329 330 332 333 334 336 329 326
341 342 343 340 343 342 340 338 337 335 335 329 331 336 334 332 336 331 327 329 327 327 326 327 328 329 333 334 336 335 335 332
343 342 342 340 340 340 337 335 334 334 337 333 329 338 335 332 334 331 328 330 328 328 328 329 328 329 333 336 337 334 335 334
344 342 341 340 337 341 336 336 335 335 337 336 330 337 336 336 333 332 330 330 328 329 329 328 328 329 333 336 336 335 335 334
342 342 342 341 337 342 336 340 337 337 335 337 336 335 338 338 332 334 330 331 328 328 328 328 329 331 337 339 339 337 336 335
336 342 343 343 339 341 340 339 339 339 336 339 337 334 336 338 334 334 332 331 329 328 329 328 329 334 339 338 334 337 337 337
334 343 344 343 342 339 343 340 342 339 340 339 340 338 335 334 337 334 335 331 330 328 328 329 329 331 338 337 334 334 334 336
318 342 343 344 343 341 340 343 341 343 342 341 341 340 338 335 336 334 335 332 331 330 328 329 329 330 336 338 336 337 330 332
314 316 342 345 344 343 340 342 343 342 342 342 342 341 339 338 335 336 334 335 331 331 330 328 330 330 332 338 338 337 334 326
317 317 317 341 345 344 343 341 343 341 341 342 343 342 340 339 337 336 333 336 333 331 331 329 329 330 331 335 339 337 333 330
315 317 319 327 343 344 344 342 342 343 341 342 342 344 341 340 339 337 335 334 336 332 332 331 329 329 332 333 337 339 339 336
313 316 319 320 341 343 345 345 343 343 343 343 343 343 344 342 341 340 338 335 336 335 333 333 331 329 330 334 334 337 338 339
Wind_Speed
31 29 29 29 29 29 29 28 27 24 22 20 19 20 21 22 21 19 19 17 16 16 16 16 16 15 19 20 20 16 18 19
30 26 27 28 29 28 28 29 28 25 23 22 20 20 21 21 20 19 18 16 14 14 14 14 14 16 14 16 17 14 18 19
31 27 26 28 30 29 28 28 28 27 24 24 23 22 22 21 19 19 18 17 15 13 12 12 12 13 12 12 9 13 14 18
31 29 28 27 29 31 30 30 30 29 28 27 25 25 23 21 19 19 17 16 15 13 12 12 12 11 9 4 7 13 14 17
29 30 29 29 26 33 33 33 32 31 29 28 27 26 24 23 21 20 19 16 14 13 13 12 12 10 7 4 6 13 15 16
29 30 30 29 29 32 35 36 35 33 31 30 28 28 25 25 24 23 21 18 15 13 13 13 13 8 6 0 2 19 16 16
35 33 31 31 29 32 34 36 36 34 32 32 29 28 30 27 24 23 23 21 18 15 14 15 12 8 9 6 7 17 16 18
39 39 36 33 30 32 33 36 35 33 33 35 32 29 30 28 26 24 24 23 20 16 15 14 9 8 8 8 4 9 19 19
44 44 42 38 31 33 34 35 34 33 34 35 34 32 30 29 25 24 25 23 22 19 18 15 12 12 9 10 8 17 17 18
34 34 43 41 36 34 35 34 34 35 34 34 37 35 32 35 29 25 25 24 25 23 23 21 17 16 14 14 11 16 17 17
40 39 47 46 46 34 37 36 37 37 35 35 41 32 32 35 30 29 26 29 30 26 23 26 20 19 20 19 15 15 19 16
51 46 49 49 46 36 39 37 38 38 38 39 40 36 34 35 33 30 31 31 31 32 27 24 23 22 22 21 17 17 21 19
41 43 44 44 41 37 39 38 38 41 40 41 37 42 38 35 37 31 34 29 36 32 28 27 25 23 18 17 16 16 21 23
31 41 44 46 45 44 41 41 40 38 40 39 42 46 42 36 39 36 36 32 34 35 33 31 28 25 18 13 2 5 10 14
25 43 43 47 44 42 32 33 29 33 35 39 43 46 46 46 42 41 37 41 37 39 38 34 33 30 24 14 3 4 6 7
20 29 45 47 45 42 45 38 34 33 37 37 42 47 49 49 45 46 37 44 42 41 41 38 36 30 25 31 22 16 3 2
29 23 35 41 47 45 46 41 38 38 35 36 36 47 50 47 51 46 44 43 48 43 43 44 42 34 31 31 22 20 18 6
34 21 19 41 45 48 47 47 40 39 37 38 37 41 47 50 49 52 52 40 47 48 45 47 47 42 37 31 31 17 15 8
34 29 26 26 49 46 48 48 47 44 44 40 40 34 40 47 52 48 51 51 44 50 47 48 51 49 43 42 35 34 22 24
33 33 28 29 42 50 51 48 49 47 44 43 43 42 41 45 46 45 49 48 46 47 50 49 50 50 48 45 44 41 38 27
Wind_Direction
168 172 177 176 175 172 167 165 165 161 158 157 156 155 153 153 151 144 140 135 128 128 133 129 127 116 107 108 114 110 108 108
171 168 171 176 179 178 175 170 168 167 163 160 161 160 160 160 157 152 149 143 136 128 131 136 132 132 128 115 102 124 115 112
177 169 169 173 179 180 179 176 172 170 168 165 164 166 167 167 165 161 158 155 149 140 133 136 140 142 145 130 89 146 130 119
177 178 173 174 178 180 181 179 177 175 174 170 169 169 171 171 171 171 168 165 161 156 151 143 145 148 151 134 82 151 139 124
179 181 182 181 177 182 183 183 181 181 179 175 173 172 171 176 175 180 179 178 174 169 167 164 157 159 152 101 58 164 150 132
179 185 184 183 190 183 186 185 186 184 183 178 175 174 174 181 184 184 187 187 185 183 181 175 166 170 191 156 353 173 156 143
178 184 188 183 193 187 190 189 190 190 187 181 181 180 179 185 189 191 191 190 191 190 189 182 185 201 221 220 150 179 166 154
180 184 189 187 194 189 190 191 194 194 193 186 184 187 187 188 191 200 198 195 192 187 185 185 201 213 185 192 160 178 171 157
184 185 187 186 192 192 193 194 197 193 199 192 186 192 191 193 193 194 198 196 191 182 182 187 198 188 190 202 176 178 170 163
179 182 187 186 185 195 192 197 196 196 201 198 192 194 196 194 199 196 191 193 192 190 193 201 193 190 192 197 189 175 182 170
183 208 189 190 186 190 192 195 198 200 202 203 197 196 201 199 197 198 195 200 201 198 197 187 191 199 200 203 194 192 188 185
188 188 190 189 186 185 191 197 201 204 203 203 202 199 201 200 199 197 197 205 199 195 191 190 197 202 206 212 201 189 187 187
196 186 184 180 180 179 186 194 197 201 203 204 204 200 203 201 201 200 199 202 195 193 197 197 201 205 188 139 124 145 178 185
211 193 184 184 184 188 188 191 198 201 200 205 205 205 205 202 204 202 203 202 197 196 196 200 205 201 172 147 130 110 142 156
223 194 189 188 190 189 188 189 191 198 198 203 206 206 207 207 206 205 205 204 201 199 200 201 205 207 198 172 142 190 141 183
312 222 194 192 188 188 187 185 193 197 201 201 205 207 208 211 208 208 209 207 207 204 203 204 204 213 206 204 206 159 161 176
304 294 225 200 191 191 190 194 197 198 201 204 202 205 209 209 210 208 210 212 211 208 205 207 210 212 211 208 200 179 171 140
333 333 264 225 201 194 193 195 194 198 200 200 204 201 203 207 208 210 212 213 210 211 211 208 210 214 219 215 209 188 187 157
333 332 326 269 217 203 199 198 196 199 200 200 203 198 199 203 206 206 209 212 215 213 214 214 213 213 219 225 223 220 220 203
326 317 325 317 231 220 208 200 199 203 200 201 204 205 202 204 202 204 209 211 213 214 214 216 215 217 217 220 227 229 224 214